This is the latest recevied weather packets stored in our database for station/object N8HON. If no packets are shown the sender has not sent any weather packets the latest 10 day(s).
| Time | Temp. | Humidity | Pressure | Rain* | Wind** | Luminosity | Snow |
|---|---|---|---|---|---|---|---|
| 1777507765 | 13.33° C | 96% | 1007.5 hPa | 0 mm | - | 0 W/m² | - |
| 1777507461 | 13.89° C | 97% | 1007.3 hPa | 0 mm | - | 2 W/m² | - |
| 1777507159 | 13.89° C | 97% | 1007.5 hPa | 0 mm | - | 0 W/m² | - |
| 1777506857 | 13.89° C | 95% | 1006.7 hPa | 0 mm | - | 0 W/m² | - |
| 1777506553 | 13.89° C | 95% | 1006.9 hPa | 0 mm | - | 0 W/m² | - |
| 1777506249 | 13.89° C | 97% | 1006.8 hPa | 0 mm | - | 8 W/m² | - |
| 1777505946 | 13.89° C | 97% | 1006.6 hPa | 0 mm | - | 9 W/m² | - |
| 1777505641 | 14.44° C | 96% | 1006.4 hPa | 0 mm | - | 11 W/m² | - |
| 1777505338 | 14.44° C | 96% | 1006.6 hPa | 0 mm | - | 10 W/m² | - |
| 1777505035 | 15° C | 95% | 1005.8 hPa | 1.27 mm | - | 22 W/m² | - |
| 1777504731 | 15° C | 94% | 1006.2 hPa | 0 mm | - | 36 W/m² | - |
| 1777504429 | 15° C | 94% | 1006.3 hPa | 0 mm | - | 26 W/m² | - |
| 1777504124 | 15° C | 96% | 1006.4 hPa | 0 mm | - | 29 W/m² | - |
| 1777503819 | 15.56° C | 97% | 1006.1 hPa | 1.78 mm | - | 35 W/m² | - |
| 1777503517 | 15.56° C | 96% | 1005.8 hPa | 0 mm | - | 33 W/m² | - |
| 1777503212 | 15.56° C | 96% | 1005.8 hPa | 0 mm | - | 20 W/m² | - |
| 1777502910 | 15.56° C | 96% | 1005.2 hPa | 0 mm | - | 33 W/m² | - |
| 1777502608 | 15.56° C | 97% | 1005.3 hPa | 0 mm | - | 33 W/m² | - |
| 1777502304 | 15.56° C | 97% | 1005 hPa | 0 mm | - | 36 W/m² | - |
| 1777502001 | 15.56° C | 97% | 1005.1 hPa | 0 mm | - | 25 W/m² | - |
| 1777501698 | 15.56° C | 97% | 1005 hPa | 0 mm | - | 12 W/m² | - |
| 1777501395 | 15.56° C | 96% | 1004.9 hPa | 0 mm | - | 30 W/m² | - |
| 1777501093 | 15.56° C | 96% | 1005.2 hPa | 0 mm | - | 23 W/m² | - |
| 1777500790 | 15.56° C | 97% | 1005 hPa | 0 mm | - | 36 W/m² | - |
| 1777500488 | 15.56° C | 96% | 1005 hPa | 0 mm | - | 41 W/m² | - |
* Rain latest hour (hover to see other rain measurements)
** Current wind speed in m/s (hover to see current wind gust speed)